Hauptseite
METAR-TAF:

METAR-TAF

Flughäfen :

Militärflugplatz Dübendorf

Dübendorf, Schweiz

Breite: 47-23-55N, Länge: 8-38-53E, Höhe: 448 m

Beobachtung

Neuester Wetterbericht von vor 46 Minuten, um 03:20 UTC
Windstille
Temperatur 5°C
Luftfeuchtigkeit 100%
Luftdruck 1023 hPa
Sichtweite: 0350 m
Nebel

METAR: LSMD 180320Z AUTO 00000KT 0350NDV R11/0650U R29/0450V0550N FG VV001 05/05 Q1023 RMK

Zeit: 06:06 (04:06 UTC)


TAF: fehlend

Wetterbeobachtungen und Prognosen von mehr als 4000 Flughäfen (METAR und TAF Bericht).

Die verfügbaren Stationen werden durch gelbe und rote Markierungen auf der Karte dargestellt.

Führen Sie die Maus auf sie, um den Namen der Station zu sehen.

Darauf klicken, um die Beobachtung von Wetterbeobachtungen und Prognosen zu sehen.

Um die Karte zu ändern : klicken Sie auf den grünen Tasten mit einem schwarzen Kreuz Zum Vergrößern, auf den grünen Button mit einem Gedankenstrich zu verkleinern, oder auf die grünen Pfeile für benachbarte Karten.


METAR-TAF: